Location: Albert Place
(40.7505°N, 111.9230°W)
Time: 14:00:10
(UTC+00:00)

IRIDIUM 104 - Pass Details

Date: 13 December 2025
Orbit: 776 x 779 km, 86.4° (Epoch: 17 January)

Event Time Altitude Azimuth Distance (km) Brightness Sun altitude
Rises 13:23:58 0° 190° (S) 3,246 7.7 -14.5°
Reaches altitude 10° 13:26:19 10° 193° (SSW) 2,323 6.9 -14.1°
Maximum altitude 13:31:28 62° 274° (W) 874 4.3 -13.2°
Drops below altitude 10° 13:36:40 10° 356° (N) 2,340 6.6 -12.3°
Sets 13:39:03 0° 360° (N) 3,272 7.4 -11.8°
